Home > Weather > Sørumsand > Past weeks

Flag for Norway Weather for the Past 2 Weeks in Sørumsand, Norway

Now
55 °F

Passing clouds.


Feels Like: 53 °F
Forecast: 38 / 66 °F
Wind: 9 mph from South

Location: Oslo Gardermoen Airport

Current Time: May 6, 2016 at 11:38:07 AM

Latest Report: May 6, 2016 at 10:50 AM


Visibility: N/A

Pressure: 30.21 "Hg

Humidity: 44%

Dew Point: 34 °F

Location of SørumsandLocation

Historic Weather in Sørumsand — Graph

°F

Sørumsand Temperature Yesterday

Maximum temperature yesterday: 59 °F (at 2:50 PM)
Minimum temperature yesterday: 34 °F (at 3:50 AM)
Average temperature yesterday: 47 °F

High & Low Weather Summary for the Past Weeks

 TemperatureHumidityPressure
High59 °F (May 4, 3:20 PM)100% (May 1, 1:20 AM)30.27 "Hg (May 1, 1:20 AM)
Low27 °F (Apr 23, 4:50 AM)19% (Apr 21, 2:50 PM)29.53 "Hg (Apr 29, 4:20 AM)
Average41 °F60%29.94 "Hg
* Reported Apr 21 10:20 AM — May 6 10:20 AM, Sørumsand, Weather by CustomWeather, © 2016

Note: Actual official high and low records may vary slightly from our data, if they occured in-between our weather recording intervals... More about our weather records

Advertising

Sørumsand Weather History for the Previous 24 Hours

Scroll right to see more
 ConditionsComfort  
Time TempWeatherWind HumidityBarometerVisibility
10:20 AM
Fri, May 6
52 °FPassing clouds.10 mph54%30.21 "HgN/A
9:50 AM50 °FPassing clouds.7 mph62%30.21 "HgN/A
9:20 AM48 °FPassing clouds.5 mph66%30.21 "HgN/A
8:50 AM45 °FPassing clouds.3 mph76%30.24 "HgN/A
8:20 AM41 °FSunny.1 mph87%30.24 "Hg10 mi
7:50 AM37 °FSunny.1 mph93%30.24 "Hg10 mi
7:20 AM37 °FSunny.2 mph87%30.24 "Hg10 mi
6:50 AM36 °FSunny.No wind87%30.21 "Hg10 mi
6:20 AM36 °FSunny.No wind87%30.21 "Hg10 mi
5:50 AM34 °FClear.2 mph87%30.21 "Hg10 mi
5:20 AM36 °FClear.No wind81%30.21 "Hg10 mi
4:50 AM37 °FClear.No wind81%30.21 "Hg10 mi
4:20 AM37 °FClear.2 mph87%30.21 "Hg10 mi
3:50 AM37 °FClear.No wind81%30.21 "Hg10 mi
3:20 AM39 °FClear.No wind75%30.21 "Hg10 mi
2:50 AM39 °FClear.No wind81%30.21 "Hg10 mi
2:20 AM39 °FPassing clouds.3 mph81%30.21 "HgN/A
1:50 AM39 °FClear.6 mph75%30.21 "Hg10 mi
1:20 AM41 °FClear.8 mph76%30.21 "Hg10 mi
12:50 AM41 °FClear.8 mph70%30.21 "Hg10 mi
12:20 AM43 °FClear.7 mph71%30.21 "Hg10 mi
11:50 PM
Thu, May 5
43 °FClear.8 mph71%30.24 "Hg10 mi
11:20 PM45 °FClear.9 mph66%30.24 "Hg10 mi
10:50 PM46 °FClear.7 mph62%30.21 "Hg10 mi
10:20 PM48 °FSunny.10 mph58%30.24 "Hg10 mi
9:50 PM48 °FSunny.10 mph58%30.24 "Hg10 mi
9:20 PM48 °FSunny.7 mph58%30.24 "Hg10 mi
8:50 PM50 °FSunny.12 mph54%30.24 "Hg10 mi
8:20 PM52 °FSunny.15 mph50%30.21 "Hg10 mi
7:50 PM54 °FSunny.14 mph47%30.24 "Hg10 mi
7:20 PM54 °FSunny.14 mph47%30.21 "Hg10 mi
6:50 PM55 °FPassing clouds.14 mph44%30.21 "HgN/A
6:20 PM57 °FPassing clouds.16 mph44%30.21 "HgN/A
5:50 PM57 °FSunny.16 mph44%30.24 "Hg10 mi
5:20 PM59 °FPassing clouds.16 mph42%30.24 "HgN/A
4:50 PM57 °FPassing clouds.15 mph41%30.24 "HgN/A
4:20 PM59 °FPassing clouds.14 mph39%30.24 "HgN/A
3:50 PM59 °FPassing clouds.12 mph39%30.24 "HgN/A
3:20 PM59 °FPassing clouds.14 mph36%30.24 "HgN/A
2:50 PM59 °FPassing clouds.14 mph36%30.24 "HgN/A
2:20 PM57 °FSunny.14 mph36%30.24 "Hg10 mi
1:50 PM57 °FPassing clouds.15 mph39%30.24 "HgN/A
1:20 PM57 °FPassing clouds.14 mph36%30.24 "HgN/A
12:50 PM55 °FPassing clouds.16 mph38%30.27 "HgN/A
12:20 PM55 °FPassing clouds.13 mph41%30.27 "HgN/A
11:50 AM55 °FPassing clouds.13 mph41%30.27 "HgN/A
11:20 AM54 °FSunny.14 mph44%30.27 "Hg10 mi
Weather by CustomWeather, © 2016

See weather overviewHow to use our weather pages